EW8926 Weather Reports


Display with metric or nautical units.
time (UTC)temp
F
wind
direction
speed
MPH
gust
MPH
rain 1hr
in
rain 24hr
in
rain mn
in
humidity
%
barometer
mb
20260504090104 67 149 2.0 5.0 0.00 0.00 0.00 51 1019.4
20260504081609 66 73 2.0 5.0 0.00 0.00 0.00 48 1019.3
20260504081103 66 240 2.0 5.0 0.00 0.00 0.00 48 1019.2
20260504080604 66 161 2.0 7.0 0.00 0.00 0.00 48 1019.1
20260504080104 66 151 2.0 5.0 0.00 0.00 0.00 48 1019.1
20260504070107 63 329 1.0 3.0 0.00 0.00 0.00 49 1018.4
20260504060104 61 148 2.0 2.0 0.00 0.00 0.00 50 1018.3
20260504050604 58 115 0.0 3.0 0.00 0.00 0.00 53 1018.1
20260504050107 58 163 0.0 5.0 0.00 0.00 0.00 54 1018.1
20260504045604 57 171 0.0 2.0 0.00 0.00 0.00 53 1018.0
20260504045105 57 165 1.0 2.0 0.00 0.00 0.00 55 1017.9
20260504044604 57 165 1.0 2.0 0.00 0.00 0.00 53 1017.9
20260504044105 57 165 1.0 1.0 0.00 0.00 0.00 55 1017.8
20260504043607 56 165 1.0 5.0 0.00 0.00 0.00 54 1017.8
20260504043103 56 148 1.0 2.0 0.00 0.00 0.00 56 1017.8
20260504042604 55 160 1.0 2.0 0.00 0.00 0.00 57 1017.7
20260504042104 55 160 1.0 5.0 0.00 0.00 0.00 58 1017.7
20260504041605 54 142 0.0 5.0 0.00 0.00 0.00 59 1017.7
20260504041105 53 142 0.0 2.0 0.00 0.00 0.00 60 1017.8
20260504040603 53 144 0.0 1.0 0.00 0.00 0.00 61 1017.8
20260504040104 53 144 0.0 0.0 0.00 0.00 0.00 63 1017.8
20260504035604 53 144 0.0 0.0 0.00 0.00 0.00 62 1017.8
20260504035104 53 144 0.0 0.0 0.00 0.00 0.00 61 1017.8
20260504034604 54 144 0.0 0.0 0.00 0.00 0.00 61 1017.8
20260504034104 54 144 0.0 0.0 0.00 0.00 0.00 61 1017.9
20260504033604 54 144 0.0 1.0 0.00 0.00 0.00 61 1018.0
20260504033104 54 144 0.0 2.0 0.00 0.00 0.00 63 1018.0
20260504032103 55 241 0.0 0.0 0.00 0.00 0.00 61 1017.9
20260504031603 55 241 0.0 0.0 0.00 0.00 0.00 60 1017.9
20260504031104 56 241 0.0 2.0 0.00 0.00 0.00 59 1018.0
20260504030605 56 241 0.0 1.0 0.00 0.00 0.00 58 1018.0
20260504030104 56 241 0.0 2.0 0.00 0.00 0.00 57 1018.0
20260504025104 56 242 2.0 2.0 0.00 0.00 0.00 58 1018.0
20260504024604 56 242 2.0 0.0 0.00 0.00 0.00 58 1018.0
20260504024104 56 242 2.0 2.0 0.00 0.00 0.00 58 1018.0
20260504023604 55 114 2.0 5.0 0.00 0.00 0.00 59 1018.0
20260504023103 54 119 1.0 6.0 0.00 0.00 0.00 60 1018.0
20260504022604 53 127 0.0 3.0 0.00 0.00 0.00 64 1018.0
20260504022104 53 314 0.0 2.0 0.00 0.00 0.00 65 1018.0
20260504021603 53 314 0.0 0.0 0.00 0.00 0.00 66 1018.0
20260504021104 53 314 0.0 0.0 0.00 0.00 0.00 66 1018.0
20260504020604 53 314 0.0 2.0 0.00 0.00 0.00 66 1018.0
20260504020104 53 314 0.0 3.0 0.00 0.00 0.00 66 1018.0
20260504015604 53 314 0.0 0.0 0.00 0.00 0.00 65 1018.1
20260504015104 53 314 0.0 0.0 0.00 0.00 0.00 65 1018.1
20260504014604 53 314 0.0 0.0 0.00 0.00 0.00 66 1018.1
20260504014104 53 314 0.0 2.0 0.00 0.00 0.00 66 1018.2
20260504013604 53 314 0.0 2.0 0.00 0.00 0.00 65 1018.2
20260504013107 53 314 1.0 2.0 0.00 0.00 0.00 66 1018.2
20260504012604 53 314 1.0 2.0 0.00 0.00 0.00 66 1018.2
20260504012104 54 314 1.0 1.0 0.00 0.00 0.00 66 1018.2
20260504011604 54 314 0.0 3.0 0.00 0.00 0.00 66 1018.2
20260504011104 54 314 0.0 5.0 0.00 0.00 0.00 66 1018.2
20260504010604 55 314 0.0 0.0 0.00 0.00 0.00 64 1018.2
20260504010105 55 314 0.0 2.0 0.00 0.00 0.00 64 1018.2
20260504005605 55 314 0.0 0.0 0.00 0.00 0.00 63 1018.3
20260504004604 56 314 0.0 3.0 0.00 0.00 0.00 63 1018.3
20260504004104 56 314 0.0 2.0 0.00 0.00 0.00 62 1018.3
20260504003603 56 314 0.0 1.0 0.00 0.00 0.00 59 1018.3
20260504003105 57 314 0.0 2.0 0.00 0.00 0.00 59 1018.3
20260504002604 57 314 0.0 0.0 0.00 0.00 0.00 57 1018.4
20260504002103 57 314 0.0 0.0 0.00 0.00 0.00 57 1018.4
20260504001603 58 314 0.0 2.0 0.00 0.00 0.00 57 1018.4
20260504001104 58 314 2.0 2.0 0.00 0.00 0.00 55 1018.5
20260504000604 58 314 2.0 2.0 0.00 0.00 0.00 54 1018.5
20260503235603 59 314 1.0 3.0 0.00 0.00 0.00 53 1018.4
20260503235103 59 95 1.0 2.0 0.00 0.00 0.00 54 1018.4
20260503234104 59 139 2.0 2.0 0.00 0.00 0.00 54 1018.5
20260503233604 59 169 2.0 3.0 0.00 0.00 0.00 55 1018.5
20260503232604 59 110 0.0 2.0 0.00 0.00 0.00 55 1018.6
20260503232104 59 105 0.0 2.0 0.00 0.00 0.00 54 1018.7
20260503231605 59 105 0.0 2.0 0.00 0.00 0.00 54 1018.7
20260503231106 59 105 0.0 2.0 0.00 0.00 0.00 54 1018.8
20260503230604 58 205 0.0 2.0 0.00 0.00 0.00 54 1018.9
20260503230104 58 131 1.0 1.0 0.00 0.00 0.00 55 1018.9
20260503225604 58 131 1.0 5.0 0.00 0.00 0.00 55 1018.9
20260503224604 58 147 1.0 3.0 0.00 0.00 0.00 57 1018.9
20260503224104 58 133 1.0 2.0 0.00 0.00 0.00 58 1019.0
20260503223604 58 115 0.0 2.0 0.00 0.00 0.00 60 1019.0
20260503223104 58 115 0.0 2.0 0.00 0.00 0.00 60 1019.0
20260503222604 58 115 0.0 0.0 0.00 0.00 0.00 59 1019.0
20260503222104 58 115 2.0 0.0 0.00 0.00 0.00 60 1019.0
20260503221104 58 115 2.0 3.0 0.00 0.00 0.00 59 1018.9
20260503220605 58 120 2.0 5.0 0.00 0.00 0.00 59 1018.9
20260503220104 59 124 2.0 3.0 0.00 0.00 0.00 58 1018.9
20260503215607 59 127 2.0 3.0 0.00 0.00 0.00 57 1018.9
20260503215104 59 127 2.0 3.0 0.00 0.00 0.00 57 1018.9
20260503214604 58 116 2.0 3.0 0.00 0.00 0.00 57 1018.9
20260503213604 58 133 1.0 5.0 0.00 0.00 0.00 55 1018.8
20260503213103 58 117 1.0 3.0 0.00 0.00 0.00 55 1018.8
20260503212604 58 117 1.0 2.0 0.00 0.00 0.00 54 1018.7
20260503211603 58 117 1.0 2.0 0.00 0.00 0.00 53 1018.7
20260503211104 59 120 1.0 3.0 0.00 0.00 0.00 52 1018.7
20260503210605 59 120 1.0 2.0 0.00 0.00 0.00 51 1018.7
20260503210107 59 120 2.0 2.0 0.00 0.00 0.00 50 1018.7
20260503205605 59 120 2.0 2.0 0.00 0.00 0.00 49 1018.7
20260503205111 59 125 2.0 3.0 0.00 0.00 0.00 49 1018.7
20260503204615 58 152 2.0 3.0 0.00 0.00 0.00 49 1018.7
20260503204105 58 151 2.0 3.0 0.00 0.00 0.00 50 1018.7
20260503203604 58 160 2.0 3.0 0.00 0.00 0.00 50 1018.7
20260503202604 58 133 2.0 3.0 0.00 0.00 0.00 52 1018.8
20260503201604 58 141 1.0 2.0 0.00 0.00 0.00 56 1018.8
20260503201104 58 141 1.0 2.0 0.00 0.00 0.00 57 1018.7
20260503200604 58 141 1.0 2.0 0.00 0.00 0.00 57 1018.7
20260503200106 58 141 2.0 2.0 0.00 0.00 0.00 57 1018.7
20260503195603 58 141 2.0 2.0 0.00 0.00 0.00 57 1018.6
20260503195104 59 141 1.0 3.0 0.00 0.00 0.00 56 1018.5
20260503194604 59 163 1.0 2.0 0.00 0.00 0.00 55 1018.5
20260503194104 59 163 1.0 2.0 0.00 0.00 0.00 55 1018.5
20260503193604 59 130 1.0 2.0 0.00 0.00 0.00 54 1018.5
20260503193104 59 130 1.0 3.0 0.00 0.00 0.00 54 1018.5
20260503192603 59 130 0.0 2.0 0.00 0.00 0.00 53 1018.4
20260503192104 59 130 0.0 0.0 0.00 0.00 0.00 51 1018.3
20260503191603 59 130 0.0 0.0 0.00 0.00 0.00 51 1018.3
20260503191103 60 130 0.0 0.0 0.00 0.00 0.00 50 1018.2
20260503190605 60 130 0.0 0.0 0.00 0.00 0.00 50 1018.1
20260503190104 60 130 1.0 1.0 0.00 0.00 0.00 49 1018.1
20260503185604 61 130 1.0 0.0 0.00 0.00 0.00 51 1018.2
20260503185103 61 130 2.0 2.0 0.00 0.00 0.00 50 1018.2
20260503184604 62 130 2.0 2.0 0.00 0.00 0.00 49 1018.2
20260503184106 62 130 1.0 3.0 0.00 0.00 0.00 49 1018.1
20260503183604 62 181 1.0 3.0 0.00 0.00 0.00 48 1018.1
20260503182104 63 124 2.0 2.0 0.00 0.00 0.00 48 1018.0
20260503180604 65 155 2.0 2.0 0.00 0.00 0.00 46 1018.0
20260503180103 65 166 2.0 2.0 0.00 0.00 0.00 44 1018.0
20260503175104 66 167 2.0 3.0 0.00 0.00 0.00 41 1018.0
20260503173604 67 144 3.0 5.0 0.00 0.00 0.00 38 1018.0
20260503172604 68 156 3.0 7.0 0.00 0.00 0.00 36 1018.1
20260503172103 68 149 3.0 6.0 0.00 0.00 0.00 36 1018.2
20260503171604 68 144 3.0 9.0 0.00 0.00 0.00 36 1018.2
20260503171104 68 141 3.0 9.0 0.00 0.00 0.00 36 1018.1
20260503170603 68 135 3.0 10.0 0.00 0.00 0.00 36 1018.1
20260503170104 69 162 3.0 10.0 0.00 0.00 0.00 36 1018.1
20260503160106 70 151 3.0 6.0 0.00 0.00 0.00 36 1017.9
20260503150104 72 161 3.0 6.0 0.00 0.00 0.00 38 1018.3
20260503140104 72 145 3.0 6.0 0.00 0.00 0.00 36 1019.1
20260503131103 73 152 5.0 10.0 0.00 0.00 0.00 35 1019.7
20260503130604 73 160 5.0 9.0 0.00 0.00 0.00 38 1019.8
20260503120104 74 152 5.0 15.0 0.00 0.00 0.00 34 1020.2
20260503110604 74 134 5.0 9.0 0.00 0.00 0.00 33 1020.1
20260503110106 74 139 5.0 8.0 0.00 0.00 0.00 34 1020.1